This is the latest recevied weather packets stored in our database for station/object WB0OCV. If no packets are shown the sender has not sent any weather packets the latest 10 day(s).
| Time | Temp. | Humidity | Pressure | Rain* | Wind** | Luminosity | Snow |
|---|---|---|---|---|---|---|---|
| 1777929331 | 15.56° C | 57% | 1013.2 hPa | 0 mm | - | 291 W/m² | - |
| 1777929028 | 15.56° C | 57% | 1013.3 hPa | 0 mm | - | 309 W/m² | - |
| 1777928725 | 15.56° C | 57% | 1013.2 hPa | 0 mm | - | 327 W/m² | - |
| 1777928422 | 15.56° C | 56% | 1013.3 hPa | 0 mm | - | 343 W/m² | - |
| 1777928120 | 15.56° C | 55% | 1013.1 hPa | 0 mm | - | 360 W/m² | - |
| 1777927818 | 16.11° C | 54% | 1013.3 hPa | 0 mm | - | 379 W/m² | - |
| 1777927515 | 16.11° C | 54% | 1013 hPa | 0 mm | - | 396 W/m² | - |
| 1777927214 | 16.11° C | 54% | 1013 hPa | 0 mm | - | 412 W/m² | - |
| 1777926912 | 16.11° C | 52% | 1013 hPa | 0 mm | - | 430 W/m² | - |
| 1777926609 | 16.67° C | 51% | 1013.1 hPa | 0 mm | - | 446 W/m² | - |
| 1777926304 | 16.67° C | 51% | 1012.8 hPa | 0 mm | - | 462 W/m² | - |
| 1777926001 | 17.22° C | 52% | 1012.8 hPa | 0 mm | - | 478 W/m² | - |
| 1777925698 | 17.78° C | 50% | 1012.6 hPa | 0 mm | - | 492 W/m² | - |
| 1777925396 | 17.22° C | 50% | 1012.9 hPa | 0 mm | - | 509 W/m² | - |
| 1777925092 | 17.78° C | 49% | 1012.7 hPa | 0 mm | - | 524 W/m² | - |
| 1777924789 | 18.33° C | 46% | 1012.9 hPa | 0 mm | - | 537 W/m² | - |
| 1777924485 | 18.33° C | 45% | 1013 hPa | 0 mm | - | 553 W/m² | - |
| 1777924182 | 18.33° C | 45% | 1013.1 hPa | 0 mm | - | 567 W/m² | - |
| 1777923878 | 18.33° C | 43% | 1012.7 hPa | 0 mm | - | 581 W/m² | - |
| 1777923574 | 18.33° C | 45% | 1012.7 hPa | 0 mm | - | 590 W/m² | - |
| 1777923271 | 18.89° C | 48% | 1013 hPa | 0 mm | - | 602 W/m² | - |
| 1777922970 | 18.89° C | 45% | 1012.9 hPa | 0 mm | - | 616 W/m² | - |
| 1777922667 | 18.89° C | 46% | 1013.1 hPa | 0 mm | - | 630 W/m² | - |
| 1777922366 | 18.89° C | 46% | 1013.1 hPa | 0 mm | - | 641 W/m² | - |
| 1777922064 | 18.89° C | 46% | 1013 hPa | 0 mm | - | 654 W/m² | - |
* Rain latest hour (hover to see other rain measurements)
** Current wind speed in m/s (hover to see current wind gust speed)